[[{"header":{"parameterUnit":"m.s-1","parameterCategory":1,"la1":30.2991,"la2":30.254,"lo1":-89.0895,"lo2":-89.0444,"dy":0.0017,"dx":0.0017,"nx":28,"ny":28,"refTime":"2024-06-24T09:00:00:Z","depth":0,"parameterNumber":2,"parameterNumberName":"U-component_of_WINDS"},"data":[0,0,0,0,0,0,0,0,0,0,0,0,0,0,0,0,0,0,0,0,0,0,0,0,0,0,0,0,0,0,0,0,0,0,0,0,0,0,0,0,0,0,0,0,0,0,0,0,0,0,0,0,0,0,0,0,0,0,4.0425,4.0425,0,4.0431,4.0431,4.0431,4.036,4.0358,4.0356,4.0355,4.0359,4.0361,4.0363,0,0,0,0,0,0,0,0,0,0,0,0,0,4.035,4.0351,4.0425,4.0425,4.0425,4.0431,4.0431,4.0431,4.0361,4.0358,4.0356,4.0354,4.0359,4.0361,4.0363,0,0,0,0,0,0,0,0,0,0,0,0,0,4.0372,4.0352,4.0425,4.039,4.0387,4.0431,4.0431,4.0431,4.0361,4.0358,4.0355,4.0353,4.0358,4.0361,4.0364,4.044,0,0,4.0373,4.0374,0,0,0,0,0,0,0,0,4.0371,4.0375,4.0395,4.0393,4.039,4.0392,4.0406,4.0434,4.0362,4.0371,4.0355,4.0351,4.0372,4.0374,4.0382,4.044,4.044,4.0373,4.0375,4.0376,4.0377,0,0,0,0,0,0,0,4.0369,4.0374,4.0427,4.0396,4.0392,4.0374,4.0374,4.0411,4.0388,4.037,4.0365,4.0367,4.037,4.0379,4.0381,4.044,4.0373,4.0375,4.0377,4.0378,4.0559,4.0562,0,0,0,0,0,0,4.0373,4.0373,4.0427,4.0427,4.0373,4.0378,4.0378,4.0394,4.0387,4.0384,4.0369,4.0363,4.0375,4.0378,4.0381,4.0467,4.0376,4.0379,4.038,4.0556,4.056,4.0563,0,0,0,0,0,0,4.0371,4.0378,4.0427,4.0399,4.0404,4.0382,4.0401,4.0396,4.0404,4.0387,4.0382,4.0382,4.0373,4.0377,4.0425,4.0466,4.038,4.0383,4.0553,4.0557,4.0562,4.0641,0,0,0,0,0,0,4.0369,4.0378,4.0407,4.04,4.0405,4.0472,4.0404,4.0398,4.041,4.0402,4.0398,4.0394,4.0371,4.0421,4.0428,4.0469,4.0385,4.0549,4.0555,4.056,4.0635,4.0648,4.0659,0,0,0,0,0,4.0367,4.043,4.0409,4.0416,4.0441,4.0474,4.0477,4.045,4.0413,4.0441,4.043,4.0394,4.0462,4.0427,4.0434,4.0476,4.0546,4.0553,4.056,4.0629,4.0646,4.0659,0,0,0,0,0,0,4.0441,4.0428,4.0405,4.0467,4.0472,4.0462,4.0497,4.0468,4.0483,4.0475,4.044,4.044,4.0493,4.049,4.0452,4.0548,4.0497,4.0506,4.0548,4.0563,4.0575,4.0573,4.0387,0,0,0,0,0,4.0465,4.0493,4.048,4.0536,4.054,4.0519,4.0532,4.051,4.0514,4.0515,4.0508,4.0512,4.0534,4.0549,4.0568,4.0636,4.0632,4.0668,4.068,4.069,4.0697,4.073,4.0745,4.0586,4.0586,4.0586,0,0,4.0514,4.051,4.053,4.0551,4.0552,4.0581,4.0521,4.0554,4.0574,4.052,4.0564,4.056,4.0562,4.062,4.0645,4.0618,4.0741,4.0699,4.0707,4.0708,4.0738,4.0753,4.0767,4.059,4.059,4.0589,0,0,4.0617,4.0619,4.0664,4.0667,4.067,4.0655,4.0667,4.0661,4.0655,4.07,4.0659,4.0683,4.0722,4.0725,4.0731,4.0836,4.0803,4.0844,4.0907,4.0939,4.0951,4.0962,4.0996,4.1009,4.0852,4.0852,4.0852,0,4.0677,4.0719,4.0691,4.0727,4.0736,4.069,4.0734,4.0739,4.0748,4.0755,4.0727,4.0773,4.0772,4.0828,4.0854,4.0862,4.0872,4.0842,4.0952,4.0963,4.0972,4.1004,4.1018,4.0857,4.0856,4.0856,4.0855,0,4.0791,4.0821,4.0858,4.0867,4.0882,4.0922,4.0899,4.0917,4.0895,4.0883,4.0928,4.0925,4.0942,4.0955,4.0934,4.1008,4.0991,4.0958,4.0905,4.0992,4.1022,4.1034,4.0863,4.0862,4.086,4.0859,0,0,4.0938,4.0933,4.0946,4.0949,4.095,4.0972,4.101,4.1027,4.1041,4.105,4.1079,4.1114,4.1083,4.1091,4.107,4.1099,4.1178,4.1062,4.1061,4.1081,4.1256,4.1278,4.1293,4.1158,4.116,4.1162,4.1255,0,4.1035,4.1099,4.1075,4.1141,4.1167,4.1124,4.1156,4.116,4.1151,4.1171,4.116,4.1184,4.1143,4.1147,4.1174,4.1163,4.1213,4.1157,4.1182,4.1184,4.1179,4.1309,4.1332,4.1419,4.1267,4.1269,4.127,0,4.1157,4.117,4.1237,4.1232,4.1242,4.1272,4.1285,4.1306,4.1308,4.1299,4.1308,4.1281,4.1317,4.1268,4.1316,4.1278,4.1288,4.1284,4.1287,4.1285,4.1229,4.1307,4.1447,4.1459,4.1289,4.1287,4.1286,0,4.1252,4.1287,4.1332,4.1336,4.1332,4.1354,4.1353,4.1353,4.1365,4.1376,4.1383,4.1399,4.1407,4.142,4.1397,4.1364,4.1447,4.1397,4.1439,4.1439,4.1454,4.1453,4.1594,4.1468,4.1468,4.1468,4.1467,0,4.1361,4.1403,4.1374,4.1401,4.1447,4.142,4.1465,4.146,4.1461,4.1485,4.1451,4.1474,4.1445,4.1466,4.1449,4.1489,4.1494,4.1486,4.148,4.1487,4.1487,4.149,4.1481,4.1471,4.147,4.147,4.1469,0,4.1473,4.1456,4.1501,4.1494,4.1493,4.1527,4.152,4.1544,4.1533,4.1564,4.157,4.1552,4.1575,4.1555,4.1577,4.1565,4.1618,4.1606,4.1617,4.1612,4.1653,4.1648,4.1798,4.1815,4.1681,4.1683,4.1684,0,4.1541,4.1573,4.1569,4.1583,4.1584,4.1608,4.1619,4.1594,4.1607,4.1613,4.1636,4.1655,4.1669,4.1707,4.1695,4.1712,4.1697,4.1749,4.1699,4.1704,4.1693,4.169,4.1691,4.1757,4.1759,4.176,4.1761,0,4.1663,4.1653,4.1671,4.1686,4.17,4.1711,4.1719,4.1732,4.1706,4.1723,4.1745,4.1756,4.1779,4.1798,4.181,4.1809,4.178,4.1778,4.1787,4.1792,4.1795,4.179,4.164,4.1773,4.1772,4.1771,4.177,4.177,4.1752,4.1777,4.1778,4.1799,4.1802,4.1811,4.1832,4.1824,4.1842,4.1858,4.1843,4.187,4.1871,4.1885,4.1888,4.1907,4.1886,4.1901,4.1904,4.1907,4.1911,4.1796,4.191,4.191,4.191,4.1909,4.1909,0,4.1869,4.1867,4.1887,4.1899,4.1915,4.1889,4.1896,4.1911,4.1934,4.1939,4.1954,4.1979,4.1997,4.1988,4.2004,4.2022,4.2009,4.2026,4.2022,4.2022,4.1932,4.192,4.2036,4.2036,4.2036,4.2036,4.2036,4.2036,4.1931,4.197,4.1961,4.2002,4.2,4.2026,4.2032,4.2039,4.2042,4.2072,4.2087,4.2081,4.208,4.2095,4.2111,4.2108,4.2113,4.2135,4.2127,4.2042,4.2029,4.2017,4.2005,4.2138,4.2138,4.2215,4.2216,4.2216]},{"header":{"parameterUnit":"m.s-1","parameterCategory":1,"la1":30.2991,"la2":30.254,"lo1":-89.0895,"lo2":-89.0444,"dy":0.0017,"dx":0.0017,"nx":28,"ny":28,"refTime":"2024-06-24T09:00:00:Z","depth":0,"parameterNumber":3,"parameterNumberName":"V-component_of_WINDS"},"data":[0,0,0,0,0,0,0,0,0,0,0,0,0,0,0,0,0,0,0,0,0,0,0,0,0,0,0,0,0,0,0,0,0,0,0,0,0,0,0,0,0,0,0,0,0,0,0,0,0,0,0,0,0,0,0,0,0,0,3.9956,3.9958,0,4.0143,4.0145,4.0147,4.0211,4.021,4.0209,4.0208,4.0394,4.04,4.0405,0,0,0,0,0,0,0,0,0,0,0,0,0,3.9654,3.966,3.9956,3.9958,3.9961,4.0142,4.0145,4.0147,4.0211,4.021,4.0209,4.0208,4.0393,4.0399,4.0406,0,0,0,0,0,0,0,0,0,0,0,0,0,3.9807,3.9661,3.9956,4.0014,4.0021,4.0142,4.0145,4.0148,4.0211,4.021,4.0209,4.0208,4.039,4.0399,4.0407,4.0481,0,0,4.0433,4.0436,0,0,0,0,0,0,0,0,3.9799,3.9818,4.0003,4.001,4.0019,4.0152,4.0107,4.026,4.0211,4.0139,4.0208,4.0207,4.0314,4.0329,4.0366,4.049,4.0498,4.0434,4.0439,4.0442,4.0445,0,0,0,0,0,0,0,3.9788,3.9811,4.003,4.0006,4.0015,4.0031,4.0052,4.0136,4.023,4.0145,4.015,4.0172,4.0318,4.0358,4.0371,4.05,4.0433,4.0441,4.0446,4.0449,4.07,4.0701,0,0,0,0,0,0,3.9768,3.9801,4.0024,4.0035,3.9904,4.0038,4.0061,4.011,4.023,4.0247,4.0172,4.0174,4.0344,4.0361,4.0378,4.0476,4.0442,4.045,4.0455,4.0698,4.07,4.0702,0,0,0,0,0,0,3.9761,3.9787,4.0016,3.992,3.995,4.0044,4.0099,4.0115,4.0154,4.025,4.0267,4.0196,4.0344,4.0366,4.0457,4.0483,4.0454,4.0462,4.0696,4.0699,4.0701,4.067,0,0,0,0,0,0,3.9752,3.9784,3.9813,3.992,3.9955,4.0092,4.0101,4.0119,4.0169,4.0173,4.0277,4.0293,4.0345,4.0444,4.0465,4.0494,4.0468,4.0694,4.0697,4.07,4.0669,4.0671,4.0672,0,0,0,0,0,3.9741,3.9794,3.9814,3.984,3.9993,4.0093,4.0113,4.0173,4.0171,4.0201,4.0264,4.0289,4.0477,4.0452,4.0477,4.0509,4.0693,4.0696,4.07,4.0668,4.067,4.0672,0,0,0,0,0,0,3.9684,3.9809,3.9832,3.9922,3.9997,4.0103,4.0143,4.0173,4.0248,4.0249,4.0319,4.0342,4.0428,4.0478,4.0448,4.059,4.0586,4.0595,4.0554,4.0557,4.0559,4.0544,4.0475,0,0,0,0,0,3.9683,3.9754,3.9859,3.9928,3.9965,4.0048,4.0093,4.0134,4.0213,4.0245,4.0314,4.0389,4.0466,4.0514,4.0589,4.0677,4.0702,4.0712,4.0714,4.0715,4.0721,4.0775,4.0782,4.0713,4.0713,4.0713,0,0,3.9679,3.9756,3.9796,3.9919,3.9981,4.0054,4.0073,4.0148,4.0203,4.0255,4.0346,4.04,4.0489,4.058,4.0623,4.0624,4.0746,4.0719,4.0719,4.0725,4.0779,4.0786,4.0791,4.0716,4.0715,4.0715,0,0,3.971,3.9774,3.9841,3.9906,4.0002,4.0058,4.0074,4.0178,4.0216,4.031,4.0352,4.0418,4.0547,4.0611,4.066,4.0722,4.0749,4.0744,4.0753,4.0805,4.0811,4.0816,4.084,4.0848,4.0751,4.075,4.075,0,3.9692,3.9804,3.9871,3.9946,4.0,4.0055,4.0124,4.0182,4.0297,4.0333,4.0334,4.0501,4.0564,4.0673,4.0689,4.0726,4.0748,4.0732,4.0805,4.0811,4.0816,4.084,4.0849,4.0749,4.075,4.075,4.075,0,3.978,3.9857,3.9899,4.0013,4.0072,4.0143,4.0222,4.0274,4.0311,4.0367,4.0463,4.0543,4.0637,4.0666,4.0701,4.0781,4.0779,4.0791,4.0789,4.0821,4.0844,4.0854,4.0748,4.0748,4.0749,4.0749,0,0,3.9775,3.993,3.9944,3.9999,4.0112,4.0173,4.0249,4.0344,4.0388,4.0467,4.0533,4.0645,4.0659,4.0714,4.0758,4.0804,4.0852,4.0811,4.0814,4.0817,4.0947,4.0938,4.0947,4.0871,4.0873,4.0875,4.0941,0,3.9821,3.996,4.0025,4.0135,4.0209,4.0265,4.0332,4.0409,4.0465,4.0536,4.0597,4.0676,4.0687,4.0722,4.077,4.0835,4.0879,4.0832,4.0933,4.0936,4.0909,4.0959,4.0948,4.1006,4.095,4.0952,4.0953,0,3.9892,3.9976,4.0093,4.0204,4.0237,4.0295,4.0391,4.0458,4.0548,4.0586,4.0651,4.0695,4.0778,4.0772,4.0888,4.0855,4.0901,4.094,4.0944,4.0955,4.0946,4.0973,4.1026,4.1035,4.0968,4.0966,4.0965,0,3.988,4.0021,4.0111,4.0156,4.0285,4.0326,4.0382,4.0471,4.0526,4.0609,4.0646,4.0737,4.0787,4.0857,4.0924,4.0913,4.1035,4.1034,4.1069,4.1068,4.1091,4.1089,4.1153,4.112,4.112,4.112,4.112,0,3.9925,3.9995,4.0108,4.0163,4.0245,4.0321,4.0399,4.0459,4.054,4.0608,4.0662,4.0725,4.0811,4.0885,4.0938,4.1028,4.105,4.1083,4.1097,4.1079,4.1074,4.1109,4.1107,4.1122,4.1122,4.1121,4.1121,0,3.9923,4.0002,4.0104,4.0221,4.0252,4.0307,4.0407,4.0464,4.0525,4.0611,4.0636,4.0731,4.0822,4.0897,4.1015,4.1051,4.1145,4.116,4.1115,4.1123,4.1155,4.1151,4.1243,4.126,4.1215,4.1215,4.1216,0,3.9946,4.0002,4.0127,4.0178,4.0235,4.0315,4.0374,4.0452,4.051,4.0621,4.0664,4.076,4.084,4.0983,4.1062,4.1154,4.1172,4.1199,4.1186,4.1168,4.1175,4.1171,4.1178,4.1199,4.1199,4.1199,4.1199,0,3.998,4.0018,4.01,4.0198,4.0267,4.0346,4.0427,4.0466,4.056,4.0623,4.0718,4.0781,4.0905,4.1,4.1102,4.1159,4.1195,4.1204,4.1217,4.1199,4.1171,4.1188,4.1119,4.12,4.12,4.12,4.12,4.12,3.9993,4.0047,4.0145,4.0236,4.0307,4.0383,4.0443,4.0514,4.0596,4.0704,4.0746,4.0844,4.0938,4.1078,4.1137,4.1215,4.1219,4.1238,4.1243,4.1247,4.1245,4.1159,4.1234,4.1234,4.1234,4.1234,4.1234,0,4.003,4.0098,4.0181,4.0296,4.0369,4.04,4.0493,4.0552,4.0638,4.0723,4.0804,4.0915,4.1009,4.1098,4.1197,4.1243,4.1262,4.1266,4.1263,4.1277,4.1235,4.1214,4.1249,4.1249,4.1249,4.1249,4.1249,4.1249,4.0059,4.0154,4.0204,4.0336,4.0403,4.0502,4.0552,4.0624,4.0693,4.0816,4.0896,4.0955,4.1042,4.1149,4.1237,4.1261,4.1295,4.1294,4.1323,4.1281,4.1279,4.1276,4.1258,4.1301,4.1301,4.1358,4.1359,4.1359]}]]